Regional Weather Roundup
Issued by NWS Sioux Falls, SD

Home | Current Version | Previous Version | Text Only | Print | Product List | Glossary Off
Versions: 1 2 3 4 5 6 7 8 9 10 11 12 13 14 15 16 17 18 19 20 21 22 23 24 25 26 27 28 29 30 31 32 33 34 35 36 37 38 39 40 41 42 43 44 45 46 47 48 49 50

000
ASUS43 KFSD 231410
RWRFSD

WEATHER ROUNDUP FOR SE SOUTH DAKOTA/SW MINNESOTA/NW IOWA
NATIONAL WEATHER SERVICE SIOUX FALLS SD
900 AM CDT SUN APR 23 2017

NOTE: "FAIR" INDICATES FEW OR NO CLOUDS BELOW 12,000 FEET WITH NO
SIGNIFICANT WEATHER AND OR OBSTRUCTIONS TO VISIBILITY.


SDZ038>040-050-052>070-231500-
SOUTHEAST SOUTH DAKOTA

CITY           SKY/WX    TMP DP  RH WIND       PRES   REMARKS
BROOKINGS      SUNNY     52  37  56 S9        30.04F
CHAMBERLAIN    SUNNY     55  37  51 S14       29.99F
HURON          PTSUNNY   48  37  65 CALM      30.00F
MADISON        FAIR      54  32  43 SW20G26   30.04F
MITCHELL       SUNNY     56  36  47 S12       30.02F
SIOUX FALLS    MOSUNNY   55  37  50 SW9       30.07F
WINNER         FAIR      54  34  46 SW25G33   29.97F
YANKTON        SUNNY     55  34  44 SW15      30.06F
$$

MNZ071-072-080-081-089-090-097-098-231500-
SOUTHWEST MINNESOTA

CITY           SKY/WX    TMP DP  RH WIND       PRES   REMARKS
FAIRMONT       SUNNY     57  36  45 W13       30.10F
JACKSON        SUNNY     54  32  43 SW9       30.10S
LUVERNE        SUNNY     54  34  47 SW8       30.10S
MARSHALL       SUNNY     44  38  79 SE3       30.09F
MONTEVIDEO     MOSUNNY   50  43  76 SE8       30.08F
PIPESTONE      SUNNY     54  34  47 SW13      30.06F
REDWOOD FALLS  SUNNY     49  40  71 CALM      30.08F
TRACY          SUNNY     45  40  82 CALM      30.09F
WINDOM         SUNNY     55  36  47 W6        30.09F
WORTHINGTON    SUNNY     56  33  42 SW16      30.09S
$$

IAZ001>003-012>014-020>022-031-032-NEZ013-014-SDZ071-231500-
NORTHWEST IOWA

CITY           SKY/WX    TMP DP  RH WIND       PRES   REMARKS
CHEROKEE       SUNNY     50  43  75 SW5       30.13S
DENISON        SUNNY     52  41  66 SW5       30.15F
ESTHERVILLE    SUNNY     56  35  45 SW13      30.10F
LE MARS        SUNNY     52  39  62 S9        30.13S
ORANGE CITY    SUNNY     55  37  50 SW13      30.11S
SHELDON        SUNNY     54  36  50 SW12      30.09S
SIOUX CITY     SUNNY     55  37  50 SW8       30.13S
SPENCER        SUNNY     56  37  49 SW12      30.11F
STORM LAKE     SUNNY     55  34  44 SW10      30.13S
$$

ABBREVIATIONS USED IN REMARKS
   TC - TEMPERATURE IN CELSIUS
  WCI - WIND CHILL INDEX
   HX - HEAT INDEX
  VSB - VISIBILITY





USA.gov is the U.S. government's official web portal to all federal, state and local government web resources and services.